Skip Page Navigation
NASA JPL Caltech
NASA Logo - Jet Propulsion Laboratory + View the NASA Portal
+ Center for Near-Earth Object Studies
JPL Home Earth Solar System Stars & Galaxies Technology
JPL Solar System Dynamics
BODIES ORBITS EPHEMERIDES TOOLS PHYSICAL DATA DISCOVERY FAQ SITE MAP
IMPORTANT: The SSD Announcement email list is now available. Major changes are coming in the near future, including possible hostname and/or URL changes. To be notified of such changes, subscribe to this email list.

Please visit this page for more details.


JPL Small-Body Database Browser
Search: [ help ]  
434928 (2006 TE111)
Classification: Main-belt Asteroid          SPK-ID: 2434928
Ephemeris | Orbit Diagram | Orbital Elements | Mission Design | Physical Parameters | Discovery Circumstances | Close-Approach Data ]

[ show orbit diagram ]
Orbital Elements at Epoch 2458600.5 (2019-Apr-27.0) TDB
Reference: JPL 13 (heliocentric ecliptic J2000)
 Element Value Uncertainty (1-sigma)   Units 
e .03670588000902251 1.0382e-07  
a 3.090729390419593 7.4624e-08 au
q 2.977281448274492 3.1074e-07 au
i 14.486577377155 8.8253e-06 deg
node 171.4577157854567 3.9438e-05 deg
peri 247.9253439404487 0.00011598 deg
M 77.66328653157797 0.0001063 deg
tp 2458172.342886392555
(2018-Feb-22.84288639)
0.00059093 TDB
period 1984.677288103279
5.43
7.1879e-05
1.968e-07
d
yr
n .1813896909880224 6.5694e-09 deg/d
Q 3.204177332564694 7.7364e-08 au
  Orbit Determination Parameters
   # obs. used (total)      83  
   data-arc span      4510 days (12.35 yr)  
   first obs. used      2006-10-01  
   last obs. used      2019-02-05  
   planetary ephem.      DE431  
   SB-pert. ephem.      SB431-N16  
   condition code      0  
   norm. resid. RMS      .71019  
   source      ORB  
   producer      Otto Matic  
   solution date      2019-Jul-14 09:26:15  

Additional Information
 Earth MOID = 2.01343 au 
 Jupiter MOID = 1.9286 au 
 T_jup = 3.175 
[ show covariance matrix ]

Ephemeris | Orbit Diagram | Orbital Elements | Mission Design | Physical Parameters | Discovery Circumstances | Close-Approach Data ]

Physical Parameter Table
Parameter Symbol Value Units Sigma Reference Notes
absolute magnitude H 16.8   n/a MPO437683  

434928 (2006 TE111)          Discovered 2006-Oct-01 by Becker, A. C. at Apache Point
Reference: Last Updated: 2015-06-04

[ show close-approach data ]
Ephemeris | Orbit Diagram | Orbital Elements | Mission Design | Physical Parameters | Discovery Circumstances | Close-Approach Data ]
ABOUT SSD CREDITS/AWARDS PRIVACY/COPYRIGHT GLOSSARY LINKS
FirstGov
(server date/time)  
NASA Home Page
Site Manager:   Ryan S. Park
Webmaster  Alan B. Chamberlin